Regional Weather Roundup
Issued by NWS Albany, NY

Home | Current Version | Previous Version | Text Only | Print | Product List | Glossary On
Versions: 1 2 3 4 5 6 7 8 9 10 11 12 13 14 15 16 17 18 19 20 21 22 23 24 25 26 27 28
000
ASUS41 KALY 250710
RWRALY

NEW YORK STATE HOURLY WEATHER ROUNDUP
NATIONAL WEATHER SERVICE ALBANY NY
300 AM EDT SAT OCT 25 2014

NOTE: "FAIR" INDICATES FEW OR NO CLOUDS BELOW 12,000 FEET WITH NO
SIGNIFICANT WEATHER AND/OR NO OBSTRUCTIONS TO VISIBILITY.

NYZ032-033-038>043-046>054-057>066-NYZ062>081-250800-
EAST


CITY           SKY/WX    TMP DP  RH WIND       PRES   REMARKS
ALBANY         PTCLDY    41  39  93 CALM      29.84S
GLENS FALLS    FOG       43  42  97 CALM      29.82F VSB 1/4
POUGHKEEPSIE   PTCLDY    38  36  92 CALM      29.86S
NEWBURGH       CLEAR     41  41 100 W6        29.86
MONTGOMERY     PTCLDY    49  34  56 W7        29.85S
WHITE PLAINS   CLEAR     45  41  86 NW3       29.84R
ISLIP          CLEAR     49  43  80 NW7       29.82R
NEW YORK CITY  MOCLDY    55  37  50 NW10      29.85S
CENTRAL PARK   CLEAR     54  36  50 NW8       29.89R
$$

NYZ005>009-017-018-044>046-055-056-250800-
CENTRAL


CITY           SKY/WX    TMP DP  RH WIND       PRES   REMARKS
FULTON         MOCLDY    46  42  86 SW7       29.88S
SYRACUSE       PTCLDY    47  42  83 W8        29.89R
ROME           MOCLDY    38  38 100 CALM      29.89S
ELMIRA         CLOUDY    41  34  76 W5        29.92R
BINGHAMTON     CLEAR     39  32  76 W7        29.89S WCI  34
MONTICELLO     CLEAR     43  34  70 W5        29.89R
$$

NYZ026>034-041>043-250800-
NORTH


CITY           SKY/WX    TMP DP  RH WIND       PRES   REMARKS
WATERTOWN      CLEAR     42  37  82 SW5       29.86R
FORT DRUM      NOT AVBL
MASSENA        CLEAR     45  42  89 SW7       29.81S
SARANAC LAKE   MOCLDY    33  32  96 SW8       29.79F FOG     WCI  26
PLATTSBURGH    CLEAR     40  39  97 CALM      29.77S
$$

NYZ001>004-010>016-019>021-250800-
WEST


CITY           SKY/WX    TMP DP  RH WIND       PRES   REMARKS
NIAGARA FALLS  CLOUDY    52  45  77 SW7       29.88F
BUFFALO        CLOUDY    51  47  86 S5        29.89F
DUNKIRK        CLOUDY    52  47  83 S6        29.92F
JAMESTOWN      CLOUDY    46  41  81 SW5       29.93F
WELLSVILLE     PTCLDY    46  36  68 W6        29.93F
ROCHESTER      CLOUDY    47  44  90 SW5       29.89F
PENN YAN       CLOUDY    49  42  77 SW9       29.90S
$$

             KEY
       WCI = WIND CHILL INDEX
       VSB = VISIBILITY
       HX  = HEAT INDEX
$$



USA.gov is the U.S. government's official web portal to all federal, state and local government web resources and services.